Lapse_Rate
6.2 6.3 6.4 6.3 6.2 6.2 6.0 5.8 5.7 5.6 5.4 5.6 5.8 6.1 6.2 6.2 6.1 6.3 6.6 6.7 6.8 6.7
6.4 6.3 6.3 6.3 6.2 6.0 5.7 5.4 5.2 5.2 5.4 5.5 5.8 5.8 6.0 6.9 6.8 6.7 6.7 6.7 6.7 6.7
6.3 6.4 6.3 6.1 5.8 5.5 5.0 4.7 4.7 4.8 5.0 5.4 5.8 5.9 6.7 6.9 6.9 6.8 6.7 6.5 6.4 6.4
6.6 6.5 6.6 6.5 6.0 5.4 5.2 5.1 5.1 4.8 4.8 5.5 5.7 6.2 6.7 6.8 6.8 6.7 6.6 6.5 6.4 6.5
6.7 6.7 6.6 6.4 5.8 5.1 5.3 5.4 5.2 4.9 5.1 5.7 6.2 6.5 6.7 6.6 6.6 6.5 6.3 6.2 6.0 5.9
6.6 6.7 6.3 6.0 5.4 5.6 5.6 5.6 5.9 6.1 6.2 6.4 6.3 6.3 6.4 6.5 6.4 6.1 5.9 5.7 5.5 5.4
6.5 6.6 6.3 5.8 5.7 6.2 6.0 6.2 6.3 6.5 6.6 6.4 6.3 6.4 6.4 6.3 6.1 5.8 5.6 5.6 5.5 5.5
6.3 5.6 5.4 5.9 6.1 6.1 6.4 6.6 6.7 6.9 6.6 6.1 6.1 6.1 6.1 5.9 5.6 5.5 5.5 5.7 5.6 5.6
5.8 5.8 6.1 5.8 6.2 7.0 7.0 6.8 6.5 6.5 6.4 6.5 6.3 6.2 6.0 5.8 5.7 5.7 5.7 5.7 5.8 5.6
6.0 6.1 6.4 6.9 7.0 6.9 6.6 6.4 6.3 6.4 6.2 6.0 5.9 6.0 5.9 5.7 5.5 5.5 5.6 5.6 5.5 6.0
6.2 6.0 6.6 6.7 6.6 6.5 6.3 6.2 6.0 5.9 5.8 5.8 5.9 5.9 5.6 5.4 5.4 5.5 5.6 5.8 6.2 6.2
5.6 6.3 6.7 6.6 6.6 6.5 6.3 6.2 6.0 5.9 5.9 5.9 5.9 5.6 5.4 5.3 5.4 5.7 6.2 6.4 6.0 5.7
6.6 6.5 6.3 6.2 6.3 6.2 6.1 6.0 5.9 5.8 5.8 5.8 5.5 5.3 5.2 5.3 5.5 6.1 6.4 6.1 5.7 5.3
6.2 6.2 6.2 6.2 6.2 6.0 5.8 5.8 5.7 5.7 5.7 5.4 5.2 5.2 5.3 5.5 5.9 6.2 6.2 5.8 5.7 5.5
Wind_Speed
8 5 5 5 4 1 3 4 6 9 8 8 6 5 4 2 2 4 6 8 5 4
7 8 6 3 3 4 6 5 5 6 6 5 3 4 4 4 6 4 5 5 5 4
9 7 6 4 7 6 5 4 4 4 4 6 4 7 5 5 5 4 4 4 5 4
10 6 4 4 5 5 3 2 1 0 4 3 5 6 5 5 5 5 5 4 6 7
8 5 3 3 3 4 3 3 1 1 1 3 5 5 5 6 5 6 6 6 6 7
7 2 3 1 2 1 2 2 2 3 5 5 4 4 5 5 5 5 5 5 5 5
3 2 2 3 6 6 5 5 6 5 5 4 4 4 4 3 2 3 4 5 5 6
5 5 6 5 7 7 6 6 6 6 5 5 4 3 3 2 2 4 6 7 7 8
4 7 8 7 7 6 8 9 6 5 5 6 3 8 3 2 4 6 8 9 10 8
5 3 5 7 9 9 6 4 5 6 5 4 2 5 8 11 5 6 8 10 10 10
3 3 5 5 5 6 4 4 4 5 4 4 4 10 14 15 7 7 8 9 10 11
6 6 6 5 6 4 4 4 4 2 4 5 5 13 16 14 5 7 9 9 11 11
5 5 5 5 6 3 3 3 3 4 4 8 6 13 17 15 6 7 8 10 12 18
5 6 5 5 3 4 3 3 4 5 5 6 8 9 18 18 8 6 8 8 9 8
Wind_Direction
313 303 294 293 293 303 102 79 71 70 76 84 73 10 354 335 338 315 335 313 278 256
304 292 273 246 121 121 117 122 109 105 97 87 100 5 340 320 300 272 260 256 262 248
285 278 258 190 142 137 125 134 145 121 94 48 350 261 244 241 246 255 267 260 262 263
281 270 250 176 133 143 143 156 243 180 98 178 229 243 249 256 260 253 265 271 273 268
295 246 208 173 143 147 145 107 226 290 239 251 254 266 271 276 281 277 275 272 272 272
299 217 156 121 104 124 23 1 306 298 279 288 290 289 279 267 278 283 282 288 288 285
313 126 73 58 35 12 340 313 301 291 290 294 292 287 290 300 347 354 326 301 282 275
19 39 57 19 6 351 330 301 315 302 308 314 317 294 121 84 324 300 287 277 269 267
39 359 345 329 297 297 293 298 278 308 308 307 298 162 179 271 278 275 281 284 284 273
281 265 274 267 262 256 270 305 317 309 322 328 353 316 325 318 288 283 283 281 284 284
0 284 271 296 324 325 318 309 322 336 346 340 325 324 317 311 296 283 280 279 280 278
326 344 344 336 326 321 333 341 337 336 351 331 305 318 316 314 287 286 281 285 284 283
335 342 336 331 330 327 329 336 8 331 323 316 302 314 318 317 295 292 301 297 295 287
340 336 350 330 339 344 11 351 334 326 310 303 303 303 314 315 306 297 295 294 294 291